User: anonymous   Login
Location: Quebec
(46.8000°N, 71.2500°W)
Time: 03:04:16
(UTC-05:00)
Language:

CZ-4B R/B - Orbit

View from above orbital plane
View from above orbital plane
View from above satellite
View from above satellite

Ground track
Ground track

The orbit data is extracted from the following two-line orbital elements,

1 29093U 06015B   14352.72523344  .00013927  00000-0  46509-3 0  4769
2 29093 097.5088 073.1079 0084141 332.5855 187.5412 15.27730806477711
Epoch (UTC): 18 December 2014 17:24:20
Eccentricity: 0.0084141
inclination: 97.5088°
perigee height: 425 km
apogee height: 540 km
right ascension of ascending node: 73.1079°
argument of perigee: 332.5855°
revolutions per day: 15.27730806
mean anomaly at epoch: 187.5412°
orbit number at epoch: 47771

The dashed part of the orbit path shows where the satellite is in the earth's shadow,  

DLR